Find Kuiper-00010

NORAD ID: 63726 Int'l Des: 2025-088 Owner: KUIP Country: US Constellation: amazon-leo operational
LEOCIRCULAR

当前视图

正在加载3D地球...

关于 Kuiper-00010

正在加载描述...

即将过境

Passes for default location (London). Set your location on the main map for personalized predictions.

高度历史

Loading altitude history...

两行轨道根数

1 63726U 25088C 26150.01359078 .00001168 00000-0 18217-3 0 9992
2 63726 51.9023 83.4881 0000789 91.6873 268.4180 14.79936817 59778
Epoch: May 30, 2026 • Age: 14 hours

当前状态

高度 629.8 km
速度 7.55 km/s
星下点 22.60°N, 144.38°E
发射日期 Apr 28, 2025
运行时间 1 years
类型 internet

技术详情

分类 Payload
质量 490.00 kg
干质量 490.00 kg
总质量 490.00 kg
长度 1.80 m
直径 0.70 m
跨度 5.00 m
形状 Box + 2 pan
制造商 KUIP
平台类型 Kuiper
阶段状态 In Orbit
所有者/国家 KUIP/US

Most Searched